This demonstration page uses our WeatherBlox Daily Observations layout. Learn more.

Left ArrowRight Arrow

Hourly Observations for May 31, 2016

Temp ( °F °C ) Dew Point ( °F °C ) Humidity (%) Winds ( mph kmh ) Pressure ( in mb ) Visibility ( mi km ) Precip ( " mm )
12:54 am 00:54 Clear 71 21.7 61 16.1 71 71 S 12 19 29.85 1011 10 16 0.00 0.00
1:54 am 01:54 Cloudy 72 22.2 61 16.1 68 68 SW 15 24 29.87 1012 10 16 0.00 0.00
2:54 am 02:54 Mostly Cloudy 68 20 56 13.3 65 65 WNW 7 11 29.86 1011 10 16 0.00 0.00
3:54 am 03:54 Mostly Clear 67 19.4 56 13.3 68 68 WNW 5 7 29.83 1010 10 16 0.00 0.00
4:54 am 04:54 Cloudy with Light Rain 65 18.3 57 13.9 76 76 NNW 6 9 29.84 1011 10 16 0.00 0.03
5:54 am 05:54 Cloudy 65 18.3 57 13.9 76 76 NNW 6 9 29.88 1012 10 16 0.00 0.03
6:54 am 06:54 Cloudy 65 18.3 58 14.4 78 78 WNW 7 11 29.91 1013 10 16 0.00 0.03
7:54 am 07:54 Cloudy with Light Rain 64 17.8 59 15 84 84 WNW 10 17 29.93 1013 10 16 0.00 0.03
8:54 am 08:54 Cloudy 65 18.3 59 15 81 81 NW 12 19 29.93 1013 10 16 0.00 0.03
9:54 am 09:54 Sunny 68 20 59 15 73 73 NNW 14 22 29.93 1014 10 16 0.00 0.00
10:54 am 10:54 Mostly Cloudy 69 20.6 58 14.4 68 68 NNW 15 24 29.94 1014 10 16 0.00 0.00
11:49 am 11:49 Partly Cloudy 72 22 57 14 61 61 NNW 8 13 29.94 1014 10 16 0.00 0.00
11:54 am 11:54 Partly Cloudy 71 21.7 58 14.4 63 63 NNW 10 17 29.94 1014 10 16 0.00 0.00
12:04 pm 12:04 Mostly Cloudy 72 22 57 14 61 61 VRB 7 11 29.94 1014 10 16 0.00 0.00
12:17 pm 12:17 Mostly Cloudy 72 22.2 58 14.4 61 61 N 7 11 29.94 1014 10 16 0.00 0.00
12:54 pm 12:54 Mostly Cloudy 72 22.2 57 13.9 59 59 NW 8 13 29.93 1014 10 16 0.00 0.00
1:54 pm 13:54 Mostly Cloudy 73 22.8 57 13.9 57 57 N 12 19 29.93 1014 10 16 0.00 0.00
2:54 pm 14:54 Mostly Sunny 75 23.9 56 13.3 52 52 N 10 17 29.92 1013 10 16 0.00 0.00
3:54 pm 15:54 Sunny 76 24.4 56 13.3 50 50 N 8 13 29.91 1013 10 16 0.00 0.00
4:54 pm 16:54 Sunny 77 25 52 11.1 42 42 N 8 13 29.90 1012 10 16 0.00 0.00
5:54 pm 17:54 Partly Cloudy 77 25 51 10.6 40 40 Calm 29.89 1012 10 16 0.00 0.00
6:54 pm 18:54 Mostly Sunny 77 25 52 11.1 42 42 VRB 5 7 29.89 1012 10 16 0.00 0.00
7:54 pm 19:54 Sunny 74 23.3 50 10 43 43 N 6 9 29.91 1013 10 16 0.00 0.00
8:54 pm 20:54 Clear 73 22.8 48 8.9 41 41 WNW 5 7 29.93 1014 10 16 0.00 0.00
9:54 pm 21:54 Clear 67 19.4 50 10 55 55 Calm 29.96 1015 10 16 0.00 0.00
10:54 pm 22:54 Cloudy 67 19.4 54 12.2 63 63 Calm 29.98 1015 10 16 0.00 0.00
11:54 pm 23:54 Cloudy 67 19.4 52 11.1 59 59 W 3 6 29.98 1015 10 16 0.00 0.00

Powered by AerisWeather